Regional Weather Roundup
Issued by NWS

Home | Current Version | Previous Version | Graphics & Text | Print | Product List | Glossary On
Versions: 1 2 3 4 5 6 7 8 9 10 11 12 13 14 15 16 17 18 19 20 21 22 23 24 25 26 27 28 29 30 31 32 33 34 35 36 37 38 39 40 41 42 43 44 45 46 47 48 49 50
000
ASUS43 KLMK 192110
RWRKY
KENTUCKY REGIONAL WEATHER ROUNDUP
NATIONAL WEATHER SERVICE LOUISVILLE KY
500 PM EDT TUE AUG 19 2014

NOTE "FAIR" INDICATES FEW OR NO CLOUDS BELOW 12,000 FEET
WITH NO SIGNIFICANT WEATHER AND/OR OBSTRUCTIONS TO VISIBILITY.

KYZ001>023-026-027-061>063-070>075-192200-
WESTERN AND SOUTH CENTRAL KENTUCKY

CITY           SKY/WX    TMP DP  RH WIND       PRES   REMARKS
PADUCAH        MOSUNNY   90  72  55 SW10      29.82R HX  97
HENDERSON      PTSUNNY   90  73  58 SW7       29.79F HX  98
OWENSBORO      PTSUNNY   90  75  61 SW10      29.80F HX 100
HOPKINSVILLE   SUNNY     89  74  60 SW12      29.84F HX  98
BOWLING GREEN  MOSUNNY   88  69  53 VRB5      29.85F HX  92
GLASGOW        MOSUNNY   87  68  53 W5        29.86F HX  90
$$

KYZ024-025-028>034-038-045-046-053-192200-
NORTH CENTRAL KENTUCKY

CITY           SKY/WX    TMP DP  RH WIND       PRES   REMARKS
LOUISVILLE/SDF MOSUNNY   88  69  53 SW12      29.81F HX  92
LOUISVILLE/LOU MOSUNNY   86  68  54 S7        29.82F
FORT KNOX      SUNNY     87  71  58 S8        29.82F HX  92
$$

KYZ035>037-039>044-047>052-055>060-089>105-192200-
NORTHEAST KENTUCKY

CITY           SKY/WX    TMP DP  RH WIND       PRES   REMARKS
LEXINGTON      MOSUNNY   87  69  54 SW6       29.86F HX  91
COVINGTON      MOSUNNY   85  66  53 SW9G17    29.84S
FRANKFORT      SUNNY     86  69  56 SW8       29.84F HX  90
$$

KYZ054-064>069-076>088-106>120-192200-
SOUTHEAST KENTUCKY

CITY           SKY/WX    TMP DP  RH WIND       PRES   REMARKS
JACKSON        MOSUNNY   83  69  62 VRB5      29.89F
LONDON         MOSUNNY   85  67  54 W9        29.89F
SOMERSET       MOSUNNY   82  68  61 W6        29.88F
MIDDLESBORO    PTSUNNY   85  67  55 NW3       29.89F
MONTICELLO     PTCLDY    86  72  62 VRB5      29.89F HX  92
$$




USA.gov is the U.S. government's official web portal to all federal, state and local government web resources and services.